Regional Weather Roundup
Issued by NWS

Home | Current Version | Previous Version | Text Only | Print | Product List | Glossary On
Versions: 1 2 3 4 5 6 7 8 9 10 11 12 13 14 15 16 17 18 19 20 21 22 23 24 25 26 27 28 29 30 31 32 33 34 35 36 37 38 39 40 41 42 43 44 45 46 47 48 49 50
000
ASCA42 TJSJ 031910
RWRPR
PUERTO RICO/U.S. VIRGIN ISLANDS HOURLY WEATHER ROUNDUP
NATIONAL WEATHER SERVICE SAN JUAN PR
300 PM AST SUN MAY 03 2015

PRZ001-004-032000-
PUERTO RICO

CITY           SKY/WX    TMP DP  RH WIND       PRES   REMARKS
SAN JUAN LMM   MOSUNNY   91  70  49 SE10G17   29.95F HX  97
PONCE          MOSUNNY   90  73  58 S12G17    29.93F HX  98
AGUADILLA      PTSUNNY   84  73  70 NE10      29.98F HX  91
$$

PRZ006-007-032000-
U.S. VIRGIN ISLANDS

CITY           SKY/WX    TMP DP  RH WIND       PRES   REMARKS
CHARLOTTE AMA  SUNNY     86  72  62 SE13      29.98F HX  92
CHRISTIANSTED  MOSUNNY   86  72  62 E12       29.99F HX  92
$$

HOURLY WEATHER ROUNDUP FOR THE NEWS MEDIA

CITY           SKY/WX    TMP DP  RH WIND       PRES   REMARKS
ORLANDO        MOSUNNY   79  54  41 E14G22    30.14F
NEW YORK       MOSUNNY   65  45  48 S10       30.10F
NEWARK         MOSUNNY   78  37  22 SE8       30.06F
CHICAGO        LGT RAIN  72  49  44 SW8       29.95R
HARTFORD       SUNNY     60  41  49 S10G20    30.10S
BOSTON         MOSUNNY   59  48  67 NE9       30.06F
DALLAS         MOSUNNY   80  55  42 S12G20    30.01F
PHILADELPHIA   MOSUNNY   79  37  22 S7        30.08F
LOS ANGELES    SUNNY     66  54  65 W13       29.94S
WASHINGTON DC  PTSUNNY   77  40  26 NW6G21    30.11F



USA.gov is the U.S. government's official web portal to all federal, state and local government web resources and services.